Location: Alta
(39.2070°N, 120.8111°W)
Time: 06:06:02
(UTC+00:00)

COSMOS 2251 DEB - Pass Details

Date: 11 December 2023
Orbit: 644 x 776 km, 74.0° (Epoch: 20 February)

Event Time Altitude Azimuth Distance (km) Brightness Sun altitude
Exits shadow 07:16:48 -21° 27° (NNE) 6,129 ? -71.7°
Enters shadow 08:24:58 -33° 248° (WSW) 8,195 ? -72.7°
Maximum altitude 14:00:30 16° 58° (ENE) 1,715 ? -13.6°
